Tracking 19193 objects as of 24-Jun-2018
HD Live streaming from Space Station
objects crossing your sky now

FENGYUN 1C DEB


10-day predictions


NORAD ID: 33647
Int'l Code: 1999-025DEG
Launch date: May 10, 1999
Source: People's Republic of China (PRC)
Launch site: Taiyaun Space Center, China (TSC)

Note: This is SATELLITE DEBRIS
aabbcc
Your satellite tracking list
Your tracking list is empty




NASA's NSSDC Master Catalog

Two Line Element Set (TLE):
1 33647U 99025DEG 18174.26535695 +.00000452 +00000-0 +38085-3 0  9998
2 33647 098.2049 346.3323 0277260 358.1187 001.8900 13.75789493252102
Source of the keplerian elements: AFSPC